NOAA 16 DEB, 41243

Orbit data source: Space-Track

NOAA 16 DEB, 41243 is space debris in SSO originally from a launch on Thu, 21 Sep 2000 UTC launched from the Air Force Western Test Range (AFWTR). Debris objects in space refer to the collection of defunct objects orbiting the Earth. Examples of debris include non-operational satellites, rocket bodies, and fragments generated from explosions, collisions, or faulty payload assembly.

Loading next visibility...
Identifier
41243, 2000-055ET
Orbit
SSO
Country
Flag of USUS
Related business
Manufacturer
Unknown
Mission
Spacecraft
Bus & Motor
Unknown
Mass
Unknown
Launch date (UTC)
2000-09-21 (25 years ago)
Launch vehicle
Unknown
Launch site
Air Force Western Test Range (AFWTR)
Object type
Payload
Rocket body
Debris
Shape & HBR
Unknown shape, 0.1 m
Radar Cross Section
Small (<0.1 m²)

Expand to show TLE details & history
Last TLE update: 9 hours ago

TLE from 9 hours ago
0 NOAA 16 DEB
1 41243U 00055ET  26036.50510171  .00005517  00000-0  22583-2 0  9991
2 41243  98.7291 120.1838 0003847 108.2991 251.8608 14.27587707521351
Epoch: 2026-02-05T12:07Z
TLE epoch observation values (Epoch: 2026-02-05T12:07:20.787Z)
Latitude
-0.00008°
Longitude
162.69083°
Altitude
803.591 km
Speed
7.451 km/s
True Right ascension
08h 00m 44s
True Declination
0° 00' 00"
Sunlit
Object was in full shadow at epoch
Visualization orbit readout
Latitude
Unknown
Longitude
Unknown
Altitude
Unknown
Speed
Unknown
Apparent Right ascension
Unknown
Apparent Declination
Unknown
Sunlit
N/A
Visualization observer readout
Local Sidereal Time
22:51:06
Azimuth
Unknown
Elevation
Unknown
Doppler factor
Unknown
Orbital elements
Apogee altitude
799.715 km
Perigee altitude
794.195 km
Semi-major axis
7,175.092 km
Eccentricity
0.00038
Inclination
98.7291°
RAAN
120.1838°
Arg. of periapsis
108.2991°
True anomaly
251.81891°
Mean anomaly
251.8608°
Eccentric anomaly
251.83986°
Mean motion
3.5711 °/min
Orbital period
100.81 mins
BSTAR
0.0022583
Loading maneuver chart data...
Computing Atmospheric mass density...

Documentation

Showing up to 5 results
|